Location: Observatoire de l'Aigle
(47.0607°N, 71.3152°W)
Time: 17:43:41
(UTC-04:00)

Daily predictions for brighter satellites

Satellite Brightness Start Highest point End
(mag) Time Altitude Azimuth Time Altitude Azimuth Time Altitude Azimuth
Cosmos 2154 Rocket 4.1 20:47:29 10° S 20:53:34 59° E 20:59:38 10° NNE
H-2A R/B 4.3 20:50:59 10° SSW 20:54:25 35° W 20:57:53 10° NNW
USA 229 DEB 4.2 20:48:16 10° NW 20:55:13 54° NE 21:02:12 10° ESE
USA 229 4.3 20:48:22 10° NW 20:55:19 53° NE 21:02:18 10° ESE
Cosmos 1782 3.6 20:54:15 10° NNW 20:58:12 54° W 21:02:09 10° S
H-2A R/B 2.1 20:54:08 10° SSE 20:58:21 63° ENE 21:02:30 10° N
Cosmos 1850 Rocket 4.4 20:53:33 10° NNW 20:58:46 51° ENE 21:03:58 10° SE
Cosmos 2184 Rocket 4.4 20:53:38 10° SSW 20:59:45 68° W 21:05:58 10° N
Cosmos 676 Rocket 4.4 20:55:24 10° NNW 21:00:35 67° WSW 21:05:46 10° S
YAOGAN 6 3.6 20:59:20 10° SE 21:02:24 29° ENE 21:05:31 10° N
Cosmos 1954 Rocket 4.2 20:58:37 10° NNW 21:03:51 80° WSW 21:09:05 10° SSE
Cosmos 1408 2.7 21:00:55 10° S 21:04:28 52° E 21:08:01 10° NNE
Okean 3 3.5 21:03:45 10° N 21:08:03 71° E 21:12:16 10° SSE
COS B Rocket 3.2 21:05:31 10° N 21:09:35 71° E 21:13:11 10° S
Cosmos 1833 Rocket 3.3 21:09:04 10° NNW 21:14:28 44° NE 21:19:33 11° SE
MetOp-A 4.3 21:11:29 10° SSE 21:16:45 63° ENE 21:22:03 10° N
Cosmos 1741 Rocket 4.0 21:15:10 10° NNW 21:20:25 73° ENE 21:25:30 11° SSE
Cosmos 1844 Rocket 3.5 21:15:36 10° SW 21:21:10 58° WNW 21:26:45 10° NNE
Cosmos 1825 2.2 21:17:34 10° S 21:21:23 88° ESE 21:25:15 10° N
Cosmos 1939 Rocket 3.3 21:17:34 10° S 21:21:25 59° W 21:25:21 10° NNW
Cosmos 2278 Rocket 2.2 21:17:34 10° SSW 21:23:14 79° ESE 21:28:56 10° NNE
SL-8 R/B 3.9 21:20:49 10° W 21:25:39 78° N 21:30:29 10° E
Cosmos 1844 4.2 21:23:43 10° SW 21:29:28 67° WNW 21:35:17 10° NNE
Okean 2 Rocket 3.0 21:29:49 10° S 21:34:13 77° E 21:38:38 10° NNE
Meteor 2-13 Rocket 4.4 21:30:57 10° S 21:37:05 75° E 21:43:15 10° NNE
Envisat 3.7 21:33:37 10° S 21:38:35 54° W 21:43:35 10° NNW
Cosmos 2082 Rocket 2.2 21:34:30 10° NNW 21:40:15 81° ENE 21:44:56 16° SSE
Cosmos 614 Rocket 4.0 21:35:27 10° NNW 21:40:34 84° WSW 21:45:00 14° SSE
PSLV R/B 3.2 21:38:39 14° S 21:41:07 74° WSW 21:44:05 10° NNW
Cosmos 1782 Rocket 3.8 21:37:36 10° SSW 21:42:04 74° W 21:46:34 10° N
CZ-4 SHROUD 3.3 21:41:47 14° S 21:44:20 73° W 21:47:25 10° NNW
Intercosmos 25 2.8 21:43:24 10° S 21:46:46 78° E 21:49:59 10° NNE
SL-08 RB Rocket 4.0 21:43:28 17° SE 21:46:54 56° ENE 21:51:29 10° N
BREEZE-M DEB 4.3 21:43:35 10° WSW 21:47:49 89° NNW 21:50:34 10° ENE
Landsat 7 4.4 21:44:59 18° SE 21:48:13 42° ENE 21:52:43 10° N
Cosmos 2218 Rocket 4.1 21:42:44 10° S 21:49:01 63° E 21:55:21 10° NNE
Cosmos 2084 4.3 21:45:58 10° WSW 21:49:41 47° NW 21:53:25 10° NNE
Cosmos 1812 3.6 21:46:36 10° N 21:50:10 33° ENE 21:52:04 21° SE
Cosmos 1420 Rocket 4.1 21:46:22 10° SSW 21:51:37 83° WNW 21:56:52 10° NNE
APEX 3.7 21:48:02 10° SSW 21:52:11 85° ESE 21:57:42 10° NNE
Cosmos 1975 Rocket 4.0 21:49:31 10° NNW 21:53:40 45° W 21:57:48 10° SSW
Cosmos 1140 Rocket 4.5 21:50:11 10° NW 21:55:02 43° WSW 21:59:52 10° S
USA 234 4.4 21:51:15 10° E 21:55:40 19° ESE 21:56:42 18° SE
Meteor 1-14 Rocket 4.2 21:50:06 10° S 21:55:44 75° E 22:01:19 10° NNE
CARTOSAT-1 4.4 21:55:37 20° ESE 21:57:58 36° ENE 22:01:55 10° N
Cosmos 1727 Rocket 4.0 21:53:12 10° N 21:59:22 68° E 22:04:02 18° SSE
Cosmos 1959 Rocket 4.4 21:53:45 10° S 21:59:49 75° E 22:05:56 10° NNE
Cosmos 2297 3.7 21:55:01 10° SSW 22:00:43 81° ESE 22:06:30 10° NNE
Meteor 2-8 Rocket 4.5 21:54:53 10° N 22:01:03 71° E 22:05:40 19° SSE
AVUM R/B 3.3 21:59:57 10° NNW 22:03:29 86° WSW 22:05:08 29° SSE
Terra 2.4 22:01:13 21° SE 22:03:55 42° ENE 22:08:25 10° N
CZ-4B R/B 3.3 21:59:53 10° NNE 22:04:50 71° ESE 22:09:18 12° S
NOAA 11 4.2 22:01:14 17° SSE 22:05:38 87° WSW 22:11:11 10° NNW
Cosmos 1536 Rocket 3.5 22:02:09 10° N 22:06:40 81° E 22:09:31 22° SSE
ISS -2.8 22:05:36 10° WSW 22:08:49 61° NNW 22:12:04 10° ENE
DELTA 2 DEB (DPAF) 4.2 22:07:41 25° SSE 22:10:14 64° ENE 22:14:40 10° N
H-2A R/B 2.2 22:11:12 23° SSE 22:14:30 64° ENE 22:19:43 10° N
BREEZE-M DEB (TANK) 2.2 22:13:24 10° W 22:15:26 51° N 22:19:11 10° E
SPOT 5 4.5 22:14:50 10° SSW 22:19:39 35° W 22:24:33 10° NNW
Lacrosse 5 rocket 2.7 22:21:56 20° E 22:21:56 20° E 22:23:30 10° ENE
Cosmos 1339 Rocket 4.4 22:14:44 10° N 22:20:56 82° E 22:25:06 22° SSE
Spot 4 4.3 22:19:27 26° SE 22:21:49 48° ENE 22:26:29 10° N
SL-8 Rocket 4.4 22:16:04 10° SSW 22:22:17 66° WNW 22:28:29 10° N
IGS 5A 3.6 22:25:17 33° SE 22:26:56 60° ENE 22:31:03 10° N
Gbstr 26 Del rocket 3.1 22:24:39 10° WNW 22:29:51 76° SSW 22:31:42 34° SE
Cosmos 2369 Rocket 3.4 22:29:37 21° ESE 22:30:07 21° E 22:34:17 10° NE
SPOT 1/Viking Rocket 4.4 22:26:12 15° SSW 22:30:16 46° W 22:35:19 10° NNW
ARGOS 3.7 22:27:48 17° S 22:31:46 52° W 22:37:01 10° NNW
Lacrosse 5 2.4 22:31:52 31° SSE 22:32:50 34° SE 22:37:25 10° ENE
Cosmos 1633 4.3 22:35:18 19° E 22:35:18 19° E 22:37:44 10° NE
Cosmos 1025 Rocket 3.9 22:33:17 10° N 22:37:23 36° ENE 22:38:34 30° ESE
CZ-4C R/B 3.6 22:38:45 33° S 22:40:25 64° WSW 22:44:37 10° NNW
Cosmos 2151 Rocket 4.4 22:36:41 11° SSW 22:40:48 50° WNW 22:45:15 10° N
USA 229 DEB 4.5 22:39:29 10° NW 22:46:07 44° WSW 22:50:15 23° S
USA 229 4.5 22:39:35 10° NW 22:46:14 44° WSW 22:50:21 23° S
Meteor 1-19 Rocket 4.5 22:41:19 10° N 22:47:08 60° ENE 22:49:38 33° SE
ASTEX 1 3.4 22:44:44 10° N 22:49:41 67° E 22:51:33 38° SSE
Cosmos 1400 Rocket 3.5 22:49:30 38° ESE 22:49:49 38° E 22:53:41 10° NNE
Iridium 4 Rocket 4.2 22:44:21 10° N 22:50:05 50° E 22:52:22 33° SE
Cosmos 1300 Rocket 3.5 22:49:12 34° S 22:51:07 88° W 22:55:36 10° N
Cosmos 1536 3.6 22:53:09 34° E 22:53:12 34° E 22:56:50 10° NNE
Meteor 1-20 Rocket 4.4 22:50:15 18° SSW 22:54:24 71° WNW 22:59:55 10° N
Timation 1 Rocket 4.4 22:50:06 10° SSW 22:56:07 80° WNW 23:02:10 10° NNE
Okean 1 Rocket 3.0 22:56:16 38° SSW 22:58:00 86° W 23:02:30 10° N
Cosmos 1833 Rocket 3.9 22:53:17 10° NW 22:58:14 33° WSW 23:01:16 20° SSW
Cosmos 1943 Rocket 4.0 22:59:12 15° E 22:59:12 15° E 23:01:54 10° ENE
ALOS 2 4.4 22:58:20 17° E 22:59:36 20° ENE 23:02:45 10° NNE
SAR-Lupe-2 3.5 23:03:13 65° SSW 23:03:37 76° WSW 23:07:12 10° NNW
NOSS 3-1 (A) 4.0 22:57:12 10° NW 23:04:42 89° ENE 23:09:02 32° SE
SL-8 R/B 3.6 23:03:33 10° WNW 23:08:23 88° N 23:10:22 36° ESE
Cosmos 1503 Rocket 4.0 23:04:18 10° NNW 23:09:34 79° ENE 23:11:14 45° SE
Cosmos 1331 Rocket 4.3 23:05:38 17° SW 23:09:39 64° WNW 23:14:47 10° NNE
Okean 1-7 Rocket 4.1 23:07:21 10° NNW 23:11:45 53° W 23:13:10 37° SSW
Cosmos 1535 Rocket 4.5 23:12:05 34° S 23:15:04 82° E 23:21:30 10° N
DMSP B5D2-2 4.3 23:12:30 10° N 23:17:41 66° WNW 23:20:37 26° SW
Cosmos 1544 Rocket 3.9 23:19:57 44° E 23:20:02 44° E 23:24:11 10° NNE
Meteor 2-15 Rocket 4.5 23:14:53 10° N 23:21:01 68° ENE 23:23:09 41° SSE
CZ-4B R/B 3.6 23:23:23 16° ENE 23:23:23 16° ENE 23:25:07 10° NNE
Cosmos 2082 Rocket 4.3 23:20:06 10° WNW 23:23:35 17° W 23:26:48 11° SW
ATLAS 2AS CENTAUR R/B 3.4 23:17:43 10° NW 23:25:48 59° NE 23:30:50 24° ESE
Meteor 2-15 4.4 23:21:22 10° N 23:27:31 86° E 23:29:39 44° SSE
Cosmos 1602 3.9 23:27:32 57° WSW 23:28:03 64° WNW 23:31:58 10° N
Meteor 2-14 Rocket 4.4 23:25:58 42° S 23:28:10 76° E 23:34:19 10° NNE
H-2A R/B 4.2 23:27:18 10° NE 23:30:33 23° E 23:30:33 23° E
NOSS 3-1 (C) 4.3 23:26:21 10° NW 23:33:41 57° WSW 23:37:00 35° S
Meteor 2-4 Rocket 3.6 23:30:09 10° NNW 23:35:37 79° W 23:37:12 48° S
Genesis I 3.6 23:37:08 46° WSW 23:38:08 65° NW 23:42:09 10° NNE
USA 234 3.1 23:32:59 10° NE 23:39:30 67° SE 23:43:56 22° SW
Cosmos 1689 Rocket 4.2 23:41:19 23° NE 23:41:19 23° NE 23:43:23 10° NNE
Cosmos 2263 4.3 23:40:30 50° SE 23:41:18 55° ESE 23:46:49 10° NE
Terra 3.5 23:40:06 20° SW 23:41:49 25° W 23:45:44 10° NW
BREEZE-M TANK 3.2 23:36:18 10° W 23:42:07 43° SW 23:42:07 43° SW
Cosmos 1354 Rocket 4.4 23:38:46 10° NNW 23:43:54 53° WSW 23:45:03 44° SSW
ISS -1.7 23:42:35 10° WNW 23:45:37 34° N 23:46:43 26° NE
Cosmos 375 4.3 23:44:49 10° NW 23:49:01 70° NE 23:49:05 70° NE
Cosmos 2084 Rocket 3.8 23:48:22 10° NW 23:51:39 49° W 23:51:39 49° W
H-2A R/B 4.0 23:51:51 15° SW 23:54:20 20° W 23:58:09 10° NW
Cosmos 1315 Rocket 2.9 23:55:13 67° WNW 23:55:13 67° WNW 23:59:09 10° N
